User: anonymous   Login
Location: Unspecified
(0.0000°N, 0.0000°E)
Time: 04:26:12
(UTC+00:00)
Language:

Cosmos 1782 - Orbit

View from above orbital plane
View from above orbital plane
View from above satellite
View from above satellite

Ground track
Ground track

The orbit data is extracted from the following two-line orbital elements,

1 16986U 86074A   18116.57646531 +.00001080 +00000-0 +70436-4 0  9992
2 16986 082.5085 176.3030 0011311 356.6713 003.4437 15.06843415696861
Epoch (UTC): 26 April 2018 13:50:06
Eccentricity: 0.0011311
inclination: 82.5085°
perigee height: 538 km
apogee height: 553 km
right ascension of ascending node: 176.3030°
argument of perigee: 356.6713°
revolutions per day: 15.06843415
mean anomaly at epoch: 3.4437°
orbit number at epoch: 69686

The dashed part of the orbit path shows where the satellite is in the earth's shadow,  

DLR